Torna al catalogo

EUTE 5 WEST A

STELLAT5

AttivoComunicazioniGEO
NORAD 27460·PAYLOAD·🇪🇺 EU

Lanciato Jul 5, 2002 da Guiana Space Centre

Loading…

TLE

AggiornatoSource: Space-Track

Epoca: Sep 14, 2026, 14:08 UTC

1 27460U 02035A   26257.58940108  .00000017  00000-0  00000+0 0  9993
2 27460   6.3073  71.4559 0010002  50.4438 155.8843  0.98353089 88250

Traccia EUTE 5 WEST A in tempo reale con AllMySat

Download on the App Store